Temperature
5 5 5 6 6 6 5 6 6 6 6 6 6 6 6 6 6 6 6 6 6 6 7 7 7 7 7 7 7 7 6 6 6 6 6 6 7 7 7 7 7 7 7
4 4 4 5 5 5 5 5 5 5 5 5 5 5 6 5 6 6 6 6 6 6 6 6 6 6 6 6 6 6 6 6 6 6 5 5 6 6 6 7 7 7 7
4 4 4 4 4 4 4 4 5 5 5 5 5 5 5 5 5 5 5 5 5 5 5 5 5 6 6 6 6 5 5 5 5 5 5 5 5 5 6 6 6 6 6
4 3 3 3 4 4 4 4 4 4 4 4 4 4 4 4 5 5 5 5 5 5 5 5 5 5 5 5 5 5 5 5 5 5 5 5 5 4 4 5 5 6 6
3 3 3 3 3 3 3 3 3 3 4 3 3 4 4 4 4 4 4 4 4 4 4 4 4 4 4 5 5 4 4 4 4 4 4 4 4 4 4 4 4 5 5
3 3 2 3 3 3 3 3 3 3 3 3 3 3 3 3 3 3 3 3 3 3 4 4 4 4 4 4 4 4 4 4 4 4 4 4 4 4 3 3 3 4 4
2 2 2 2 2 2 2 2 2 3 3 3 3 3 2 2 3 3 3 3 3 3 3 3 3 3 3 3 3 3 3 3 3 3 3 3 3 3 3 3 3 3 3
1 1 1 1 1 1 2 2 2 2 2 2 2 2 2 2 2 2 2 2 2 2 2 2 3 3 3 3 3 3 3 3 3 3 3 3 3 3 3 3 2 2 2
0 1 1 1 1 1 1 1 1 1 1 1 2 1 1 1 1 1 1 1 2 2 2 2 2 2 2 2 2 2 2 2 2 2 2 2 2 2 2 2 2 2 1
-0 -0 -0 -0 -0 -0 0 0 1 1 1 1 1 1 1 1 1 1 1 1 1 1 1 1 1 1 1 1 1 1 1 1 1 1 1 1 1 1 1 1 1 1 1
-1 -1 -1 -1 -1 -1 -0 -0 -0 0 0 0 0 0 0 0 0 0 0 0 0 0 0 0 0 1 1 1 1 1 1 1 1 1 1 1 1 1 1 1 0 1 1
-2 -2 -2 -2 -1 -1 -1 -1 -1 -1 -0 -0 -0 -0 -0 -0 -0 -0 -0 -0 -0 -0 -0 -0 -0 -0 -0 -0 -0 -0 -0 -0 -0 -0 -0 -0 -0 -0 -0 -0 -0 0 0
-2 -2 -2 -2 -2 -2 -2 -2 -2 -1 -1 -1 -1 -1 -1 -1 -1 -1 -1 -1 -1 -1 -1 -1 -1 -1 -1 -1 -1 -1 -1 -1 -1 -1 -1 -1 -1 -1 -1 -1 -1 -1 -1
-3 -3 -3 -3 -3 -3 -2 -2 -2 -2 -2 -2 -2 -1 -1 -1 -1 -1 -1 -1 -1 -1 -2 -2 -2 -2 -2 -2 -2 -2 -2 -2 -2 -2 -2 -2 -2 -1 -1 -1 -1 -1 -1
-3 -4 -4 -4 -3 -3 -3 -3 -3 -3 -3 -2 -2 -2 -2 -2 -2 -2 -2 -2 -2 -2 -2 -2 -2 -2 -2 -2 -2 -3 -3 -2 -2 -2 -2 -2 -2 -2 -2 -2 -2 -2 -2
-4 -4 -4 -4 -4 -4 -4 -4 -4 -4 -4 -3 -3 -3 -3 -3 -3 -3 -3 -3 -3 -3 -3 -3 -3 -3 -3 -3 -3 -3 -3 -3 -3 -3 -3 -3 -3 -3 -3 -3 -3 -3 -3
-5 -5 -5 -5 -5 -5 -5 -5 -5 -5 -4 -4 -4 -4 -4 -3 -3 -3 -3 -3 -3 -3 -3 -3 -3 -3 -3 -4 -4 -4 -4 -4 -3 -3 -3 -3 -3 -3 -3 -3 -3 -4 -4
-5 -5 -5 -5 -5 -5 -5 -5 -5 -5 -5 -5 -5 -5 -5 -4 -4 -4 -4 -4 -4 -4 -4 -4 -4 -4 -4 -4 -4 -4 -5 -4 -4 -4 -4 -4 -4 -4 -4 -4 -4 -4 -4
-5 -5 -6 -6 -6 -6 -6 -6 -6 -6 -6 -6 -6 -5 -5 -5 -5 -5 -5 -5 -5 -5 -5 -5 -5 -5 -5 -5 -5 -5 -5 -5 -5 -5 -5 -5 -5 -5 -5 -5 -4 -5 -5
-6 -6 -6 -6 -6 -6 -6 -6 -6 -6 -6 -6 -6 -6 -6 -6 -6 -6 -6 -6 -6 -6 -6 -6 -5 -5 -5 -5 -6 -6 -6 -6 -6 -6 -6 -6 -5 -5 -5 -5 -5 -6 -6
-6 -6 -7 -7 -7 -7 -7 -7 -7 -7 -7 -7 -7 -7 -7 -7 -6 -6 -6 -6 -6 -6 -6 -6 -6 -6 -6 -6 -6 -6 -7 -6 -6 -6 -6 -6 -6 -6 -6 -6 -6 -6 -7
-7 -7 -7 -7 -7 -8 -8 -8 -8 -8 -8 -8 -8 -7 -7 -7 -7 -7 -7 -7 -7 -7 -7 -7 -7 -7 -7 -7 -7 -7 -7 -7 -7 -7 -7 -7 -7 -7 -7 -7 -7 -7 -7
-8 -8 -8 -8 -8 -8 -8 -8 -8 -8 -8 -8 -8 -8 -8 -8 -8 -8 -8 -8 -8 -8 -8 -8 -8 -8 -8 -8 -8 -8 -8 -8 -8 -7 -7 -7 -8 -8 -8 -8 -8 -8 -8
-8 -9 -9 -8 -8 -9 -9 -9 -9 -9 -9 -9 -9 -9 -9 -9 -9 -9 -9 -9 -9 -9 -9 -9 -9 -9 -9 -8 -8 -8 -8 -8 -8 -8 -8 -8 -8 -8 -8 -8 -8 -8 -8
-9 -9 -9 -9 -9 -9 -9 -9 -9 -9 -9 -9 -9 -9 -9 -9 -9 -9 -9 -9 -9 -9 -9 -9 -9 -9 -9 -9 -9 -9 -9 -9 -9 -9 -9 -9 -9 -9 -9 -9 -9 -9 -9
-9 -9 -9 -10 -9 -10 -10 -10 -10 -10 -10 -10 -10 -10 -10 -10 -10 -10 -10 -10 -10 -10 -10 -10 -10 -10 -10 -10 -10 -10 -10 -9 -9 -9 -9 -10 -10 -10 -10 -10 -10 -10 -10
Wind_Speed
2 3 3 2 3 3 4 5 5 4 4 3 3 3 2 1 1 2 2 2 2 2 2 2 2 2 1 1 1 2 2 1 1 2 2 2 1 0 0 1 1 2 2
2 3 3 3 2 2 2 3 4 5 4 3 2 2 2 1 1 2 2 2 2 1 1 1 1 1 1 2 2 2 1 1 1 1 1 0 1 1 1 0 0 0 1
2 2 2 2 2 2 1 1 3 4 3 3 2 2 2 1 1 1 1 1 2 2 1 1 1 1 2 2 2 2 2 1 1 0 1 2 2 1 1 2 1 1 0
1 2 2 2 2 2 2 1 1 3 3 3 3 4 3 2 2 2 1 1 2 2 2 1 1 1 1 2 2 2 1 2 2 1 1 1 1 1 1 2 1 2 1
1 1 2 2 2 2 2 2 2 1 2 2 3 3 2 2 1 2 2 2 1 1 2 1 1 1 1 2 1 1 2 2 2 2 1 1 1 1 1 2 2 2 2
1 2 2 3 2 2 2 2 1 1 1 1 2 3 3 2 2 2 2 2 1 1 1 2 1 1 1 1 1 2 2 2 2 2 1 1 1 2 2 3 2 3 2
1 1 2 2 2 2 2 1 1 1 1 0 1 2 3 3 3 3 3 2 2 2 3 2 2 1 1 2 2 2 3 3 3 3 2 2 2 1 1 2 2 2 2
2 2 2 1 1 1 1 1 0 1 1 1 1 1 2 2 2 2 2 3 3 3 2 2 2 2 2 2 2 2 3 3 3 3 3 2 2 2 2 2 2 2 2
2 2 2 2 1 1 0 0 0 0 1 1 1 2 1 2 2 2 2 2 2 2 2 2 2 3 2 3 3 3 3 3 3 3 3 3 2 2 2 2 3 3 3
2 3 3 2 2 2 1 0 0 0 1 1 1 2 2 2 2 2 2 2 2 2 2 2 2 3 2 3 3 3 3 3 3 3 3 3 3 2 2 3 3 3 3
2 2 2 2 2 2 2 2 2 1 1 1 1 1 1 2 2 2 2 2 2 2 2 3 3 3 3 3 3 4 4 4 4 3 4 4 3 3 3 3 3 3 3
2 3 3 3 3 2 2 2 2 2 2 2 1 1 1 1 2 2 2 2 2 2 3 3 3 4 3 3 3 4 4 4 5 5 4 5 4 4 3 3 4 3 3
4 4 4 3 3 3 3 3 3 2 3 3 2 2 2 1 2 2 2 2 2 2 3 3 3 4 4 4 4 4 4 5 5 5 5 5 4 5 4 3 4 3 3
3 4 4 3 4 3 3 4 4 3 3 3 2 2 2 2 2 2 2 2 2 2 3 4 4 4 4 4 4 4 4 4 4 5 5 5 5 6 5 4 4 3 3
3 3 3 4 4 4 4 4 4 4 3 3 3 3 2 2 2 2 2 2 2 3 3 3 4 4 4 5 4 4 5 5 5 5 5 5 6 7 6 5 4 4 4
3 3 4 4 4 5 5 4 4 4 3 3 3 3 3 2 2 2 2 1 2 2 3 3 4 4 5 7 8 6 5 5 5 6 5 5 6 7 8 8 8 7 6
3 3 4 4 4 4 4 4 4 4 3 3 3 3 3 2 3 3 2 2 2 2 3 3 3 4 5 8 8 8 4 4 5 5 5 4 5 5 4 6 7 7 9
3 3 4 4 4 4 4 4 4 4 4 3 4 3 3 3 3 3 3 3 2 3 3 3 3 4 5 7 8 7 4 4 4 4 5 5 4 5 4 3 4 4 5
3 3 3 3 4 4 4 4 4 4 4 4 4 4 3 2 3 3 3 3 2 3 3 3 3 4 5 7 8 7 3 3 4 4 4 5 5 7 7 5 4 4 4
3 3 3 3 4 4 4 4 4 4 4 5 4 4 3 3 3 3 3 3 3 3 3 4 3 4 4 7 7 6 3 3 3 3 4 6 6 8 8 5 4 5 5
4 3 3 3 4 4 4 4 4 4 5 5 5 5 4 4 3 3 3 3 3 3 3 4 3 3 5 6 7 6 3 4 4 4 3 4 7 8 8 6 4 6 5
4 4 3 4 4 4 3 4 4 5 5 5 5 5 4 4 3 3 3 3 3 3 3 3 3 3 3 5 5 6 6 5 4 4 3 4 7 7 7 5 6 7 6
3 3 3 4 4 4 3 3 5 5 5 5 5 5 5 4 4 3 3 3 2 2 3 2 3 3 2 3 6 6 5 6 3 3 5 5 6 5 4 5 6 5 3
3 3 3 3 4 4 4 4 5 5 4 4 5 4 4 4 4 3 3 2 2 2 3 3 3 3 3 2 3 3 3 4 3 2 3 4 4 3 3 4 3 3 3
3 3 3 4 4 4 4 5 5 4 4 4 4 4 4 4 3 3 2 3 2 3 4 3 3 3 3 4 6 4 3 2 2 1 0 1 1 1 2 2 2 2 2
3 3 3 4 4 4 4 4 4 4 4 4 4 4 3 3 3 3 3 4 5 7 7 6 6 5 6 7 8 8 7 5 3 1 1 2 2 2 2 2 2 2 2
Wind_Direction
100 79 69 85 106 121 138 145 142 144 135 146 151 147 147 131 95 85 93 96 112 115 98 90 104 100 111 118 128 127 118 86 86 66 13 341 332 356 337 34 68 92 109
92 82 75 69 69 98 121 152 149 148 145 151 164 162 151 158 125 97 114 127 121 111 122 103 145 139 133 129 126 118 129 210 161 135 143 282 321 321 300 268 206 155 104
135 109 82 74 74 62 68 115 144 142 142 129 121 123 114 117 134 149 141 125 160 169 158 156 161 162 149 164 166 161 154 198 247 219 158 172 219 270 289 256 242 217 231
111 111 98 81 70 59 50 36 107 139 149 142 149 155 167 186 201 187 183 185 182 172 177 177 177 176 173 177 186 178 184 175 208 271 289 245 185 185 272 290 255 251 264
113 118 106 93 82 69 60 33 31 85 137 163 177 181 193 196 166 170 173 201 221 186 186 197 200 201 191 187 181 187 194 200 202 217 250 277 290 248 215 258 266 275 268
51 81 86 86 74 76 74 46 32 23 46 176 191 195 200 183 168 188 196 198 211 221 207 213 216 229 208 193 201 208 199 209 216 222 221 208 222 228 220 240 253 257 262
58 79 85 83 77 74 69 54 38 5 355 301 207 217 217 202 192 200 201 204 213 221 227 230 220 239 238 219 207 210 210 209 215 221 222 222 238 241 243 239 254 265 270
51 66 81 91 81 87 87 84 52 334 313 307 267 253 237 213 209 218 211 209 215 227 234 236 231 230 239 235 222 225 219 216 218 228 218 224 237 231 229 230 233 266 275
35 32 49 55 63 55 95 168 231 284 302 293 287 259 254 242 228 231 232 223 231 237 224 240 248 236 234 236 229 223 221 220 223 225 220 227 240 227 229 231 218 213 245
26 26 30 24 30 25 19 47 293 251 275 288 292 288 272 269 257 236 229 230 234 235 227 235 243 245 238 239 237 229 219 218 232 230 226 233 239 234 229 233 240 229 228
20 12 16 27 34 34 29 21 9 358 328 296 296 303 279 283 273 247 239 237 241 231 227 232 238 238 238 243 237 230 219 220 231 239 235 240 237 233 233 232 237 239 230
25 21 24 26 22 21 17 9 4 357 341 331 322 301 284 278 281 272 260 243 236 235 233 233 233 236 236 235 230 239 231 224 229 232 234 240 242 240 238 232 235 241 236
29 27 26 17 7 5 7 1 359 347 334 331 326 326 322 286 275 273 282 263 238 238 238 235 230 234 231 228 232 233 241 237 232 230 230 233 232 236 237 231 233 245 253
25 21 13 4 359 358 356 354 349 345 336 335 331 320 315 305 290 280 277 270 251 233 237 241 239 238 237 236 235 240 243 247 247 240 236 235 234 231 227 231 232 237 243
10 7 359 353 352 351 350 351 342 340 338 335 325 309 306 316 310 300 280 269 267 260 249 243 244 244 239 234 226 235 243 245 253 250 243 242 241 237 234 238 231 227 233
350 353 349 346 344 341 340 339 333 329 328 322 315 313 315 322 312 300 295 283 260 254 250 240 241 246 250 247 243 242 236 240 245 247 243 240 235 236 240 246 246 237 232
343 339 335 334 334 332 331 328 324 326 327 320 316 314 316 319 313 305 304 289 282 271 259 254 246 246 252 250 248 249 244 238 241 244 245 248 241 236 234 246 251 253 251
328 329 332 332 331 332 336 332 329 329 323 317 313 312 315 313 312 311 301 295 289 283 280 273 262 257 260 255 251 250 244 243 247 247 246 242 238 236 234 236 247 252 257
326 325 331 331 334 334 334 334 332 330 329 319 314 313 311 308 308 303 298 298 295 288 282 281 272 265 269 264 258 253 239 242 250 253 250 245 239 242 240 233 239 252 264
357 350 347 345 338 333 339 339 331 337 336 328 322 320 315 308 297 293 294 297 293 290 288 284 279 274 273 266 263 252 236 240 251 255 249 252 249 244 242 229 224 241 254
355 353 349 340 332 335 344 338 334 332 325 324 325 321 314 303 292 291 290 287 288 288 287 286 287 285 283 278 265 257 249 241 244 250 249 250 255 249 247 244 233 243 249
353 351 346 338 338 346 348 337 328 324 327 326 324 322 320 314 314 308 304 298 293 292 291 289 293 296 293 293 277 265 265 264 249 247 245 245 252 251 250 252 252 251 253
342 344 341 335 340 348 345 327 321 326 327 328 326 324 323 323 321 316 312 311 304 293 294 291 291 299 305 301 299 284 278 274 271 260 255 251 250 252 257 261 261 256 243
341 341 339 333 332 338 338 326 321 324 326 327 324 324 327 326 326 321 313 307 302 295 294 291 291 293 296 297 295 289 286 284 286 283 271 270 265 270 264 259 265 263 242
337 338 332 324 323 329 329 330 331 333 330 323 321 324 324 318 322 322 312 307 288 278 284 279 274 277 280 283 288 288 279 263 250 263 228 263 257 255 261 257 256 259 259
328 329 326 324 322 325 326 329 329 329 325 323 327 327 325 324 323 321 319 312 303 303 298 292 289 286 285 290 288 286 287 284 270 269 228 240 240 244 248 246 250 252 254
Height
1488 1488 1488 1489 1490 1491 1492 1493 1495 1497 1499 1501 1503 1504 1506 1508 1510 1512 1513 1515 1516 1517 1519 1520 1521 1522 1523 1525 1526 1527 1528 1530 1531 1533 1533 1534 1535 1536 1537 1538 1539 1539 1540
1486 1486 1487 1487 1488 1489 1490 1491 1493 1494 1496 1498 1500 1502 1504 1505 1507 1509 1510 1512 1513 1514 1516 1517 1518 1519 1520 1522 1523 1524 1525 1527 1529 1530 1531 1531 1533 1533 1534 1535 1536 1537 1537
1485 1485 1485 1485 1486 1487 1488 1489 1491 1492 1494 1496 1498 1500 1501 1503 1504 1506 1507 1509 1510 1511 1513 1514 1515 1516 1517 1518 1519 1521 1522 1524 1526 1527 1529 1529 1529 1530 1531 1531 1533 1534 1534
1483 1484 1484 1484 1484 1485 1486 1487 1489 1490 1492 1494 1495 1496 1497 1498 1500 1502 1504 1505 1507 1509 1510 1511 1512 1513 1514 1515 1516 1518 1519 1521 1522 1524 1525 1527 1527 1528 1527 1528 1529 1530 1531
1482 1482 1483 1483 1483 1484 1484 1485 1487 1488 1490 1491 1493 1494 1495 1496 1498 1499 1500 1502 1504 1505 1506 1508 1509 1509 1510 1511 1513 1514 1516 1517 1518 1520 1521 1522 1524 1524 1525 1524 1525 1526 1527
1480 1481 1481 1481 1482 1482 1483 1484 1485 1486 1488 1489 1490 1491 1492 1493 1495 1496 1497 1498 1500 1501 1503 1504 1505 1506 1506 1507 1509 1510 1512 1513 1514 1515 1517 1518 1519 1520 1521 1521 1521 1522 1523
1478 1479 1479 1480 1480 1480 1481 1482 1482 1483 1484 1486 1487 1488 1489 1491 1492 1493 1494 1495 1496 1497 1498 1499 1501 1502 1502 1503 1505 1506 1507 1509 1510 1511 1512 1514 1515 1516 1518 1518 1518 1518 1519
1477 1477 1478 1478 1479 1479 1480 1480 1480 1481 1482 1483 1484 1485 1486 1488 1489 1490 1491 1491 1492 1493 1495 1496 1496 1497 1498 1499 1500 1502 1503 1504 1505 1506 1508 1509 1511 1512 1513 1514 1515 1514 1514
1476 1477 1477 1477 1477 1477 1477 1478 1478 1478 1479 1480 1481 1482 1483 1484 1485 1486 1487 1488 1489 1490 1491 1491 1492 1493 1494 1495 1496 1497 1498 1499 1501 1502 1503 1504 1506 1507 1508 1509 1510 1512 1510
1476 1476 1476 1476 1476 1476 1476 1476 1476 1476 1476 1477 1478 1479 1480 1480 1481 1482 1483 1484 1484 1485 1486 1487 1488 1489 1489 1490 1491 1492 1494 1495 1496 1497 1498 1499 1500 1502 1503 1504 1505 1506 1506
1475 1475 1475 1475 1475 1474 1474 1474 1474 1474 1474 1474 1475 1476 1476 1477 1478 1478 1479 1479 1480 1481 1482 1482 1483 1484 1485 1486 1486 1487 1489 1490 1491 1492 1493 1494 1495 1496 1497 1498 1499 1500 1501
1475 1474 1474 1474 1473 1473 1472 1472 1472 1471 1472 1472 1472 1472 1473 1473 1474 1474 1475 1476 1476 1477 1477 1478 1478 1479 1480 1481 1482 1482 1483 1484 1485 1487 1487 1489 1490 1491 1492 1493 1494 1495 1496
1474 1474 1473 1472 1472 1471 1471 1470 1469 1469 1469 1469 1469 1469 1469 1470 1470 1471 1471 1471 1472 1472 1473 1473 1474 1474 1475 1476 1477 1477 1478 1479 1480 1481 1482 1483 1484 1485 1486 1487 1488 1489 1490
1474 1473 1472 1471 1471 1470 1469 1468 1467 1467 1466 1466 1466 1466 1466 1466 1466 1467 1467 1467 1467 1468 1468 1469 1469 1469 1470 1471 1472 1473 1473 1474 1475 1476 1477 1478 1479 1480 1481 1482 1482 1483 1484
1473 1472 1471 1470 1469 1468 1467 1466 1465 1464 1463 1463 1463 1463 1463 1463 1463 1463 1463 1463 1463 1463 1464 1464 1464 1465 1465 1466 1467 1468 1469 1469 1470 1470 1471 1472 1473 1474 1475 1476 1477 1478 1478
1471 1471 1470 1469 1468 1466 1465 1464 1463 1462 1461 1460 1460 1459 1459 1459 1459 1459 1459 1459 1459 1459 1459 1459 1460 1460 1460 1461 1462 1463 1463 1464 1464 1465 1466 1467 1467 1468 1469 1470 1471 1472 1473
1470 1469 1469 1467 1466 1465 1463 1462 1461 1459 1458 1457 1457 1456 1456 1455 1455 1455 1455 1454 1454 1454 1454 1455 1455 1455 1455 1456 1457 1458 1458 1458 1459 1459 1460 1460 1461 1462 1463 1464 1465 1466 1467
1468 1467 1466 1465 1464 1463 1461 1460 1458 1457 1456 1454 1454 1453 1452 1452 1451 1451 1451 1450 1450 1450 1450 1450 1450 1450 1450 1451 1452 1452 1453 1453 1453 1454 1454 1455 1455 1456 1457 1458 1458 1459 1460
1466 1465 1464 1463 1462 1460 1459 1457 1456 1455 1453 1452 1451 1450 1449 1448 1448 1447 1447 1447 1446 1446 1446 1446 1446 1446 1446 1446 1447 1447 1447 1447 1448 1448 1448 1449 1449 1450 1452 1452 1452 1453 1454
1464 1463 1462 1461 1459 1458 1457 1455 1454 1452 1451 1450 1448 1447 1446 1446 1445 1444 1444 1443 1443 1442 1442 1441 1441 1441 1441 1441 1442 1443 1442 1442 1442 1443 1443 1444 1444 1445 1445 1446 1446 1446 1447
1462 1461 1460 1459 1458 1456 1455 1453 1451 1450 1449 1447 1446 1445 1444 1443 1442 1441 1440 1439 1439 1438 1438 1437 1437 1437 1437 1437 1437 1438 1438 1437 1437 1437 1437 1438 1439 1439 1440 1440 1440 1441 1442
1460 1459 1458 1456 1456 1454 1453 1451 1449 1448 1446 1445 1443 1442 1441 1440 1439 1438 1437 1436 1435 1434 1434 1433 1433 1433 1433 1433 1433 1433 1433 1433 1433 1432 1433 1433 1434 1434 1434 1434 1435 1436 1436
1458 1457 1456 1454 1453 1452 1450 1448 1447 1446 1444 1442 1441 1440 1438 1437 1436 1435 1434 1433 1432 1432 1431 1430 1429 1429 1429 1429 1429 1429 1429 1429 1428 1428 1429 1429 1429 1429 1429 1429 1430 1430 1430
1456 1455 1454 1452 1451 1450 1448 1447 1445 1443 1442 1440 1439 1437 1436 1435 1434 1433 1432 1431 1430 1429 1428 1427 1427 1426 1425 1425 1425 1425 1425 1424 1424 1424 1424 1425 1425 1425 1425 1425 1425 1425 1425
1455 1453 1452 1450 1449 1447 1446 1445 1443 1441 1440 1438 1437 1435 1434 1433 1431 1430 1430 1429 1428 1427 1426 1425 1424 1423 1422 1422 1422 1422 1421 1421 1420 1420 1420 1420 1420 1419 1420 1420 1420 1420 1421
1453 1451 1450 1448 1447 1445 1444 1442 1441 1439 1438 1436 1435 1433 1432 1431 1429 1428 1427 1426 1426 1424 1423 1423 1422 1420 1420 1419 1418 1418 1418 1417 1417 1417 1416 1415 1416 1415 1416 1416 1416 1416 1417